Location: *
(41.7492°S, 135.4150°W)
Time: 23:00:34
(UTC+00:00)

Lacrosse 5 - Pass Details

Date: 20 September 2021
Orbit: 714 x 724 km, 57.0° (Epoch: 28 August)

Event Time Altitude Azimuth Distance (km) Brightness Sun altitude
Exits shadow 13:27:40 16° 332° (NNW) 1,843 3.6 -16.7°
Drops below altitude 10° 13:29:15 10° 347° (NNW) 2,218 4.1 -16.4°
Sets 13:32:09 0° 3° (N) 3,130 5.1 -15.9°
